Regional Weather Roundup
Issued by NWS

Home | Current Version | Previous Version | Text Only | Print | Product List | Glossary On
Versions: 1 2 3 4 5 6 7 8 9 10 11 12 13 14 15 16 17 18 19 20 21 22 23 24 25 26 27 28 29 30 31 32 33 34 35 36 37 38 39 40 41 42 43 44 45 46 47 48 49 50
000
ASUS43 KFSD 200302
RWRSD

WEATHER ROUNDUP FOR SOUTH DAKOTA
NATIONAL WEATHER SERVICE SIOUX FALLS SD
900 PM CST THU JAN 19 2017

NOTE: "FAIR" INDICATES FEW OR NO CLOUDS BELOW 12,000 FEET WITH NO
SIGNIFICANT WEATHER AND/OR OBSTRUCTIONS TO VISIBILITY.


SDZ001>005-009-010-012>017-200400-
NORTHWEST AND NORTH CENTRAL SOUTH DAKOTA

CITY           SKY/WX    TMP DP  RH WIND       PRES   REMARKS
BUFFALO          N/A     32  21  64 W7        29.38F WCI  26
FAITH            N/A     21  19  92 NW5       29.43F WCI  15
MOBRIDGE       FOG       22  18  85 CALM      29.46F VSB 1/4
$$

SDZ012>016-024>037-041>051-057-063-072>074-200400-
SOUTHWEST AND SOUTH CENTRAL SOUTH DAKOTA

CITY           SKY/WX    TMP DP  RH WIND       PRES   REMARKS
RAPID CTY ARPT CLOUDY    29  20  69 NW6       29.45F WCI  23
PIERRE         CLOUDY    19  17  92 W6        29.46F FOG     WCI  11
CUSTER         CLOUDY    34  19  54 W7        29.47F WCI  28
ELLSWORTH AFB  CLOUDY    28  21  74 W5        29.44F WCI  23
PHILIP         CLOUDY    16  14  92 W7        29.46F WCI   6
PINE RIDGE     CLOUDY    27  24  89 CALM      29.48S
SPEARFISH      FAIR      30  21  69 W6        29.46F WCI  24
WINNER         FAIR      37  34  89 S12       29.47S
$$

SDZ004>011-016>023-039-040-200400-
NORTHEAST SOUTH DAKOTA

CITY           SKY/WX    TMP DP  RH WIND       PRES   REMARKS
ABERDEEN       CLOUDY    34  32  92 S10       29.54F FOG     WCI  26
WATERTOWN      FOG       34  34 100 S16       29.55F VSB 1   WCI  24
BROOKINGS      FOG       35  35 100 SE14      29.58S VSB 1/2 WCI  26
SISSETON         N/A     35  35 100 S9        29.59S WCI  28
$$

SDZ017-020-022-023-036>040-048>070-200400-
SOUTHEAST SOUTH DAKOTA

CITY           SKY/WX    TMP DP  RH WIND       PRES   REMARKS
SIOUX FALLS    DRZL/FOG  38  38 100 SE10      29.60F VSB 1
HURON          CLOUDY    37  37 100 SE12      29.53F
CHAMBERLAIN    CLOUDY    38  38  99 SE10      29.48F
MITCHELL       CLOUDY    40  39  97 SE15      29.55F
YANKTON        CLOUDY    39  36  87 SE9       29.58F
$$

ABBREVIATIONS USED IN REMARKS
   TC - TEMPERATURE IN CELSIUS
  WCI - WIND CHILL INDEX
   HX - HEAT INDEX
  VSB - VISIBILITY





USA.gov is the U.S. government's official web portal to all federal, state and local government web resources and services.